Hourly Data Report for December 14, 2012

BAGOTVILLE A
QUEBEC

48°20'00.000" N
71°00'00.000" W
159.10 m
7060400
71727
YBG

Download Data

Hourly Data (December 2012)
Hourly Data Report for December 14, 2012
TIME
LST
Temp Definition
°C
Dew Point Definition
°C
Rel Hum Definition
%
Precip. Amount Definition
mm

Wind Dir Definition
10's deg

Wind Spd Definition
km/h
Visibility Definition
km
Stn Press Definition
kPa
Hmdx Definition


Wind Chill Definition


Weather Definition


00:00 -3.6 -5.2 89   9 11 1.2 99.69   -8 Snow
01:00 -3.6 -5.2 89   10 11 2.4 99.61   -8 Snow
02:00 -3.4 -5.6 85   11 11 1.6 99.58   -8 Snow
03:00 -3.2 -4.2 93   11 13 1.2 99.52   -8 Snow
04:00 -3.2 -4.5 91   19 7 1.2 99.46   -6 Snow
05:00 -3.0 -3.9 93   11 7 1.2 99.40   -6 Snow
06:00 -2.8 -3.7 94   11 7 1.2 99.36   -6 Snow
07:00 -2.6 -3.5 94   11 6 1.6 99.30   -5 Snow
08:00 -2.4 -3.0 96   14 4 1.6 99.28   -4 Snow
09:00 -1.5 -2.0 96   23 6 2.4 99.27   -4 Snow
10:00 0.0 -0.7 95   26 11 3.2 99.26   -4 Snow
11:00 0.4 -1.0 90   28 15 2.4 99.24     Snow
12:00 -1.0 -2.4 90   30 22 1.6 99.30   -7 Snow
13:00 -3.0 -4.5 89   29 30 2.4 99.42   -10 Snow
14:00 -5.0 -6.9 86   28 32 32.2 99.55   -13 Snow
15:00 -5.8 -8.9 79   28 26 40.2 99.71   -14 Mostly Cloudy
16:00 -6.0 -9.1 79   28 26 32.2 99.85   -14 Mostly Cloudy
17:00 -7.4 -10.5 78   28 22 24.1 100.00   -15 Mostly Cloudy
18:00 -7.8 -10.6 80   29 26 16.1 100.12   -16 Snow Showers
19:00 -8.9 -11.5 81   29 26 24.1 100.22   -18 Snow Showers
20:00 -10.2 -13.1 79   30 28 24.1 100.33   -19 Snow Showers
21:00 -11.9 -14.2 83   29 24 24.1 100.40   -21 Snow Showers
22:00 -12.6 -16.0 76   29 24 24.1 100.48   -22 Snow Showers
23:00 -13.4 -15.5 84   28 20 24.1 100.55   -22 Snow Showers

Notes on Data Quality.

Legend

  • E = Estimated
  • M = Missing
  • NA = Not Available*
  • [empty] = Indicates an unobserved value
Date modified: